Jida, China

6:56 PM CST on August 24, 2017 (GMT +0800)
Jida

Weather History for 45011 - September, 2013

Change the Weather History Date:

Wednesday, September 4, 2013

  Actual Average Record
Temperature  
Mean Temperature 76 °F -  
Max Temperature 78 °F 82 °F - ()
Min Temperature 74 °F 76 °F - ()
Cooling Degree Days 11    
Growing Degree Days 26 (Base 50)    
Moisture  
Dew Point 75 °F    
Average Humidity 92    
Maximum Humidity 100    
Minimum Humidity 83    
Precipitation  
Precipitation 5.63 in - - ()
Sea Level Pressure  
Sea Level Pressure 29.78 in    
Wind  
Wind Speed 9 mph ()    
Max Wind Speed 17 mph    
Max Gust Speed -    
Visibility 4.0 miles    
Events Rain , Thunderstorm    
T = Trace of Precipitation, MM = Missing Value Source: Averaged Metar Reports

Daily Weather History Graph

Daily Weather History Graph

Search for Another Location

Airport or City:

Trip Planner

Search our weather history database for the weather conditions in past years. The results will help you decide how hot, cold, wet, or windy it might be!

Date:

Astronomy

Sep. 04, 2013 Rise Set
Actual Time 6:09 AM CST 6:39 PM CST
Civil Twilight 5:46 AM CST 7:02 PM CST
Nautical Twilight 5:20 AM CST 7:28 PM CST
Astronomical Twilight 4:53 AM CST 7:55 PM CST
Moon 4:51 AM CST (9/4) 5:41 PM CST (9/4)
Length of Visible Light 13h 15m
Length of Day
12h 30m
Waning Crescent, 2% of the Moon is Illuminated
Sep 4
Waning Crescent
Sep 5
New
Sep 13
First Quarter
Sep 19
Full
Sep 27
Last Quarter

Hourly Weather History & Observations

Time (CST) Temp. Heat Index Dew Point Humidity Pressure Visibility Wind Dir Wind Speed Gust Speed Precip Events Conditions
12:00 AM 80.6 °F 87.1 °F 77.0 °F 89% 29.77 in 6.2 mi SSE 9.2 mph - N/A Rain Light Rain Showers
12:30 AM 80.6 °F 87.1 °F 77.0 °F 89% 29.77 in 6.2 mi SSE 9.2 mph - N/A Rain Light Rain Showers
1:00 AM 80.6 °F 87.1 °F 77.0 °F 89% 29.77 in 6.2 mi SE 6.9 mph - N/A   Scattered Clouds
1:30 AM 80.6 °F 87.1 °F 77.0 °F 89% 29.74 in 6.2 mi SE 8.1 mph - N/A   Scattered Clouds
2:00 AM 78 °F - 78 °F 98% 29.77 in 7 mi SSW 4.6 mph - -   Unknown Precipitation
2:00 AM 80.6 °F 87.1 °F 77.0 °F 89% 29.74 in 6.2 mi SE 10.4 mph - N/A   Scattered Clouds
2:30 AM 80.6 °F 87.1 °F 77.0 °F 89% 29.74 in 6.2 mi SSE 8.1 mph - N/A   Scattered Clouds
3:00 AM 80.6 °F 87.1 °F 77.0 °F 89% 29.71 in 6.2 mi SE 6.9 mph - N/A   Scattered Clouds
3:30 AM 80.6 °F 87.1 °F 77.0 °F 89% 29.71 in 6.2 mi SSE 10.4 mph - N/A   Scattered Clouds
4:00 AM 80.6 °F 87.1 °F 77.0 °F 89% 29.71 in 6.2 mi SSE 10.4 mph - N/A   Scattered Clouds
4:30 AM 80.6 °F 87.1 °F 77.0 °F 89% 29.71 in 6.2 mi SSE 12.7 mph - N/A   Scattered Clouds
5:00 AM 78.8 °F - 75.2 °F 89% 29.71 in 5.0 mi SSE 16.1 mph - N/A   Scattered Clouds
5:30 AM 80.6 °F 87.1 °F 77.0 °F 89% 29.71 in 6.2 mi South 17.3 mph - N/A Rain , Thunderstorm Light Rain Showers
6:00 AM 80.6 °F 87.1 °F 77.0 °F 89% 29.74 in 6.2 mi South 15.0 mph - N/A Rain , Thunderstorm Light Rain Showers
6:30 AM 78.8 °F - 75.2 °F 89% 29.74 in 3.1 mi WSW 4.6 mph - N/A Rain , Thunderstorm Thunderstorms and Rain
7:00 AM 77.0 °F - 75.2 °F 94% 29.77 in 1.1 mi Variable 5.8 mph - N/A Rain , Thunderstorm Heavy Thunderstorms and Rain
7:18 AM 77.0 °F - 75.2 °F 94% 29.77 in 0.7 mi NNW 11.5 mph - N/A Rain Heavy Rain Showers
7:30 AM 77.0 °F - 75.2 °F 94% 29.77 in 0.7 mi NNW 11.5 mph - N/A Rain Heavy Rain Showers
8:00 AM 75 °F - 74 °F 96% 29.82 in 2 mi SSW 5.8 mph - - Thunderstorm Thunderstorm
8:00 AM 75.2 °F - 73.4 °F 94% 29.80 in 0.9 mi West 13.8 mph - N/A Rain , Thunderstorm Heavy Thunderstorms and Rain
8:13 AM 75.2 °F - 73.4 °F 94% 29.80 in 1.6 mi Variable 2.3 mph - N/A Rain , Thunderstorm Thunderstorms and Rain
8:30 AM 75.2 °F - 73.4 °F 94% 29.80 in 1.1 mi ENE 3.5 mph - N/A Rain Rain Showers
9:00 AM 75.2 °F - 75.2 °F 100% 29.80 in 1.2 mi SSE 3.5 mph - N/A Rain Rain Showers
9:14 AM 75.2 °F - 73.4 °F 94% 29.83 in 0.7 mi South 8.1 mph - N/A Rain Heavy Rain Showers
9:30 AM 75.2 °F - 73.4 °F 94% 29.80 in 1.6 mi SE 6.9 mph - N/A Rain Heavy Rain Showers
9:36 AM 75.2 °F - 73.4 °F 94% 29.80 in 2.2 mi Variable 2.3 mph - N/A Rain Rain Showers
10:00 AM 75.2 °F - 73.4 °F 94% 29.80 in 2.2 mi Variable 4.6 mph - N/A Rain Rain Showers
10:30 AM 75.2 °F - 75.2 °F 100% 29.83 in 2.5 mi SSW 6.9 mph - N/A Rain Rain Showers
11:00 AM 75 °F - 75 °F 99% 29.84 in 3 mi South 6.9 mph - -   Clear
11:00 AM 77.0 °F - 75.2 °F 94% 29.80 in 3.1 mi South 13.8 mph - N/A Rain Rain Showers
11:30 AM 77.0 °F - 75.2 °F 94% 29.80 in 5.6 mi South 11.5 mph - N/A Rain Light Rain Showers
12:00 PM 77.0 °F - 75.2 °F 94% 29.80 in 6.2 mi South 8.1 mph - N/A Rain Light Rain Showers
12:30 PM 78.8 °F - 75.2 °F 89% 29.80 in 6.2 mi SE 8.1 mph - N/A   Scattered Clouds
1:00 PM 78.8 °F - 73.4 °F 83% 29.77 in 6.2 mi SSE 6.9 mph - N/A Rain Light Rain Showers
1:30 PM 78.8 °F - 75.2 °F 89% 29.77 in 6.2 mi SE 8.1 mph - N/A   Scattered Clouds
2:00 PM 78 °F - 76 °F 92% 29.80 in 7 mi East 4.6 mph - -   Clear
2:00 PM 78.8 °F - 75.2 °F 89% 29.77 in 6.2 mi East 9.2 mph - N/A Rain Light Rain Showers
2:30 PM 78.8 °F - 75.2 °F 89% 29.77 in 6.2 mi East 10.4 mph - N/A Rain Light Rain Showers
3:00 PM 78.8 °F - 75.2 °F 89% 29.77 in 2.5 mi ESE 12.7 mph - N/A Rain Rain Showers
3:04 PM 78.8 °F - 75.2 °F 89% 29.77 in 1.6 mi ESE 17.3 mph - N/A Rain Rain Showers
3:10 PM 78.8 °F - 75.2 °F 89% 29.77 in 0.9 mi SE 15.0 mph - N/A Rain Heavy Rain Showers
3:30 PM 78.8 °F - 75.2 °F 89% 29.74 in - ESE 12.7 mph - N/A Rain Rain Showers
4:00 PM 77.0 °F - 73.4 °F 89% 29.77 in 3.1 mi SSW 4.6 mph - N/A Rain Light Rain Showers
4:18 PM 77.0 °F - 75.2 °F 94% 29.77 in 1.0 mi East 5.8 mph - N/A Rain Heavy Rain Showers
4:30 PM 77.0 °F - 75.2 °F 94% 29.77 in 1.4 mi East 8.1 mph - N/A Rain Rain Showers
4:50 PM 77.0 °F - 75.2 °F 94% 29.77 in 1.0 mi ENE 9.2 mph - N/A Rain Heavy Rain Showers
5:00 PM 76 °F - 75 °F 97% 29.79 in 2 mi East 5.8 mph - - Rain Rain Showers
5:00 PM 77.0 °F - 75.2 °F 94% 29.77 in 1.0 mi ENE 10.4 mph - N/A Rain Heavy Rain Showers
5:18 PM 77.0 °F - 75.2 °F 94% 29.77 in 0.8 mi East 11.5 mph - N/A Rain Heavy Rain Showers
5:30 PM 77.0 °F - 75.2 °F 94% 29.77 in 0.8 mi East 11.5 mph - N/A Rain Heavy Rain Showers
6:00 PM 77.0 °F - 75.2 °F 94% 29.77 in 0.8 mi NE 15.0 mph - N/A Rain Heavy Rain Showers
6:30 PM 77.0 °F - 75.2 °F 94% 29.77 in 1.7 mi East 13.8 mph - N/A Rain Rain Showers
6:44 PM 77.0 °F - 75.2 °F 94% 29.77 in 3.1 mi ESE 15.0 mph - N/A Rain Light Rain Showers
7:00 PM 77.0 °F - 75.2 °F 94% 29.77 in 5.0 mi ESE 16.1 mph - N/A Rain Light Rain Showers
7:30 PM 77.0 °F - 75.2 °F 94% 29.77 in 5.0 mi East 17.3 mph - N/A   Mostly Cloudy
8:00 PM 75 °F - 75 °F 99% 29.82 in 2 mi East 8.1 mph - - Rain Light Rain Showers
8:00 PM 77.0 °F - 75.2 °F 94% 29.80 in 5.0 mi ESE 16.1 mph - N/A Rain Light Rain Showers
8:30 PM 77.0 °F - 75.2 °F 94% 29.80 in 5.0 mi Variable 13.8 mph - N/A Rain Light Rain Showers
9:00 PM 77.0 °F - 75.2 °F 94% 29.80 in 6.2 mi East 12.7 mph - N/A Rain Light Rain Showers
9:30 PM 78.8 °F - 75.2 °F 89% 29.83 in 6.2 mi East 12.7 mph - N/A Rain Light Rain Showers
10:00 PM 78.8 °F - 75.2 °F 89% 29.83 in 6.2 mi East 11.5 mph - N/A Rain Light Rain Showers
10:30 PM 78.8 °F - 75.2 °F 89% 29.83 in 6.2 mi East 15.0 mph - N/A Rain Light Rain Showers
11:00 PM 76 °F - 75 °F 94% 29.86 in 14 mi ESE 10.4 mph - - Rain Light Rain Showers
11:00 PM 78.8 °F - 75.2 °F 89% 29.83 in 6.2 mi East 15.0 mph - N/A Rain Light Rain Showers
11:30 PM 78.8 °F - 75.2 °F 89% 29.83 in 6.2 mi ESE 16.1 mph - N/A   Mostly Cloudy